Regional Weather Roundup
Issued by NWS

Home | Current Version | Previous Version | Text Only | Print | Product List | Glossary Off
Versions: 1 2 3 4 5 6 7 8 9 10 11 12 13 14 15 16 17 18 19 20 21 22 23 24 25 26 27 28 29 30 31 32 33 34 35 36 37 38 39 40 41 42 43 44 45 46 47 48 49 50

000
ASUS45 KBOU 302007
RWRCO

WEATHER ROUNDUP FOR COLORADO
NATIONAL WEATHER SERVICE DENVER/BOULDER CO
200 PM MDT MON MAY 30 2016

NOTE: "FAIR" INDICATES FEW OR NO CLOUDS BELOW 12000 FEET WITH NO
SIGNIFICANT WEATHER AND/OR OBSTRUCTIONS TO VISIBILITY.

COZ001>005-013-030-031-302100-
...NORTHWEST COLORADO...

CITY           SKY/WX    TMP DP  RH WIND       PRES   REMARKS
CRAIG          FAIR      69  39  33 W10G18    30.10F
HAYDEN         FAIR      66  37  34 NW8       30.12F
MEEKER         FAIR      72  36  26 W9G25     30.10F
MOUNT WERNER   NOT AVBL
STEAMBOAT SPGS FAIR      65  37  34 SW15      30.12F
WALDEN         NOT AVBL
$$

COZ006>008-011-302100-
...WEST CENTRAL VALLEYS...

CITY           SKY/WX    TMP DP  RH WIND       PRES   REMARKS
GRAND JUNCTION FAIR      79  34  19 NW14      29.99F
MONTROSE       FAIR      77  34  21 NW21      30.06S
EAGLE          PTSUNNY   73  21  14 SW24G33   30.08F
RIFLE          FAIR      79  35  20 W15       30.02F
DELTA          FAIR      81  24  12 W18G25    30.00F
NUCLA          FAIR      73  28  19 NW13      30.11S
$$

COZ017>023-064>068-302100-
...SOUTHWEST COLORADO...

CITY           SKY/WX    TMP DP  RH WIND       PRES   REMARKS
DURANGO        FAIR      76  18  11 SW15      30.11F
CORTEZ         FAIR      80  18  10 W10G20    30.07F
PAGOSA SPRINGS FAIR      71  12  10 SW10G20   30.18F
TELLURIDE      FAIR      63  18  17 W7        30.26S
WOLF CREEK PAS FAIR      45  16  31 SW16G30   30.44S
$$

COZ009-010-012-014-032>034-037-058>063-302100-
...CENTRAL COLORADO...

CITY           SKY/WX    TMP DP  RH WIND       PRES   REMARKS
ASPEN          FAIR      63  27  25 N14       30.16R
BUENA VISTA    FAIR      70  19  14 W23G29    30.16R
COPPER MTN     NOT AVBL
BERTHOUD PASS  PTSUNNY   37  30  75 W35G45    30.39F
COTTONWOOD PAS LGT RAIN  61  19  20 N9G22     30.28R
GUNNISON       FAIR      68  23  18 W9        30.17F
KREMMLING      FAIR      59  30  33 NW9G20    30.15R
LEADVILLE      LGT RAIN  53  21  28 NE10G17   30.26F
MONARCH PASS   PTSUNNY   45  21  39 W26G39    30.50F
SALIDA         FAIR      72  20  14 SE7       30.21F
SUNLIGHT       FAIR      55  32  41 CALM      30.36S
WILKERSON PASS CLOUDY    46  16  29 SW7G23    30.38S THUNDER
$$

COZ069>075-302100-
...SAN LUIS VALLEY/SANGRE DE CRISTO MOUNTAINS...

CITY           SKY/WX    TMP DP  RH WIND       PRES   REMARKS
ALAMOSA        FAIR      72  21  14 VRB6      30.12F
LA VETA PASS   FAIR      63  21  20 S12G17    30.30F
SAGUACHE       LGT RAIN  57  34  41 CALM      30.18F
$$

COZ035-036-038>040-302100-
...NORTHERN COLORADO FRONT RANGE...

CITY           SKY/WX    TMP DP  RH WIND       PRES   REMARKS
DENVER INTL AP PTSUNNY   75  36  24 S10       29.95F
DMNS CITY PARK   N/A     80  29  15 E7        29.93F
AURORA         PTSUNNY   76  34  21 S5        29.98F
FRONT RANGE AP PTSUNNY   72  36  26 SW7       29.98F
ERIE MUNI ARPT FAIR      78  30  17 CALM      29.94F
BOULDER MUN AP FAIR      73  43  33 N15G28    29.96R
CENTENNIAL     PTSUNNY   70  32  24 SE14      29.98F
BROOMFIELD     PTSUNNY  N/A N/A N/A NE6         N/A
FORT COLLINS   FAIR      48  45  87 W21G32    29.99R
LONGMONT       FAIR      76  41  29 NE12G17   29.98R
$$

COZ041-046-047-076>085-087-088-302100-
...PIKES PEAK/PALMER DIVIDE AND SOUTHERN FOOTHILLS...

CITY           SKY/WX    TMP DP  RH WIND       PRES   REMARKS
COLO. SPRINGS  PTSUNNY   75  41  29 NE17      30.03F
A. F. ACADEMY  PTSUNNY   68  23  18 S9G35     30.04F
SCHRIEVER AFB  NOT AVBL
ELLICOTT       NOT AVBL
FALCON         FAIR      64  32  30 S17       30.09F
FORT CARSON    FAIR      75  39  27 N12       29.98F
LIMON          TSTM      67  48  50 W10       30.01S
MONUMENT HILL  PTSUNNY   64  32  29 NW8       30.09S
TRINIDAD       FAIR      78  26  14 SE9       30.03S
$$

COZ042>045-048>051-090-091-302100-
...NORTHEAST COLORADO...

CITY           SKY/WX    TMP DP  RH WIND       PRES   REMARKS
GREELEY ARPT   FAIR      79  43  27 N20G26    29.96F
AKRON          FAIR      79  49  34 VRB7      29.93F
BURLINGTON     FAIR      81  45  28 S12       29.94F
WRAY           FAIR      81  46  30 SE8       29.91F
STERLING       FAIR      79  54  41 S7        29.90F
HOLYOKE        FAIR      82  46  28 S3        29.91F
FORT MORGAN    FAIR      81  41  24 SE5       29.93F
$$

COZ086-089-092>099-302100-
...SOUTHEAST COLORADO...

CITY           SKY/WX    TMP DP  RH WIND       PRES   REMARKS
PUEBLO         FAIR      82  47  29 SE12      29.92F
LA JUNTA       FAIR      80  49  33 VRB5      29.93F
LAMAR          FAIR      86  49  27 SE13G22   29.89F
SPRINGFIELD      N/A     80  52  37 S16G23    29.96F
$$



USA.gov is the U.S. government's official web portal to all federal, state and local government web resources and services.